Regional Weather Roundup
Issued by NWS

Home | Current Version | Previous Version | Text Only | Print | Product List | Glossary On
Versions: 1 2 3 4 5 6 7 8 9 10 11 12 13 14 15 16 17 18 19 20 21 22 23 24 25 26 27 28 29 30 31 32 33 34 35 36 37 38 39 40 41 42 43 44 45 46 47 48 49 50
000
ASUS43 KDTX 220401
RWRMI
MICHIGAN HOURLY REGIONAL WEATHER ROUNDUP
NATIONAL WEATHER SERVICE DETROIT/PONTIAC MI
1200 AM EDT SUN OCT 22 2017

NOTE: "FAIR" INDICATES FEW OR NO CLOUDS BELOW 12,000 FEET WITH NO
SIGNIFICANT WEATHER AND/OR OBSTRUCTION TO VISIBILITY.

MIZ047>049-052>055-059>063-066>070-074>076-081>083-220500-
SOUTHEAST LOWER MICHIGAN

CITY           SKY/WX    TMP DP  RH WIND       PRES   REMARKS
ADRIAN         CLOUDY    60  46  59 S8        30.16F
ALMA           CLEAR     63  44  50 S8        30.10S
ANN ARBOR      PTCLDY    56  48  74 S3        30.16F
BAD AXE        CLOUDY    59  50  71 S10       30.14S
CARO           CLOUDY    62  50  66 SE6       30.12F
DETROIT CITY   CLEAR     61  52  72 S6        30.17S
DETROIT        MOCLDY    60  48  64 S6        30.17F
FLINT          PTCLDY    62  51  67 S8        30.13F
GROSSE ILE     PTCLDY    60  56  87 S5        30.17S
HILLSDALE      CLEAR     61  43  51 S7        30.14F
HOWELL         PTCLDY    62  51  67 S7        30.14F

CITY           SKY/WX    TMP DP  RH WIND       PRES   REMARKS
JACKSON        CLEAR     64  44  48 S9        30.14S
LAMBERTVILLE   CLOUDY    64  44  47 S5        30.16F
LANSING        CLEAR     62  46  55 S10       30.12F
LAPEER         FAIR      63  50  63 S8        30.15S
MASON          CLEAR     63  47  55 S5        30.13F
MONROE         MOCLDY    60  42  51 S5        30.16F
PONTIAC        MOCLDY    62  50  64 S9        30.15F
PORT HOPE        N/A     61  50  67 S6        30.12S
PORT HURON     PTCLDY    61  52  72 S7        30.17S
TRI CITIES     CLOUDY    63  54  72 S9        30.11F
MIDLAND        FAIR      64  51  61 S5        30.09F
TROY           CLEAR     62  50  64 S5        30.18F
SAGINAW HB     PTCLDY    63  52  67 S8        30.11S
$$
MIZ043>046-050>051-056>058-064>065-071>073-077>080-220500-
SOUTHWEST LOWER MICHIGAN

CITY           SKY/WX    TMP DP  RH WIND       PRES   REMARKS
BATTLE CREEK   CLEAR     63  46  54 S8        30.12S
BENTON HARBOR  CLEAR     67  51  56 SE9       30.06R
BIG RAPIDS     PTCLDY    61  45  56 SE5       30.06S
COLDWATER      CLEAR     63  41  44 S7        30.13S
FREMONT        FAIR      65  52  62 S7        30.05S
HOLLAND        CLEAR     65  53  65 S9        30.06S
GRAND RAPIDS   PTCLDY    66  48  52 S14       30.07F
IONIA          FAIR      63  45  51 S9        30.09S
KALAMAZOO      CLEAR     64  46  52 S7        30.10F
LUDINGTON      CLOUDY    66  52  59 S10       30.00F
MARSHALL       CLOUDY    63  44  48 S6        30.12S
MOUNT PLEASANT PTCLDY    65  46  48 S5        30.08S
MUSKEGON       MOCLDY    68  53  58 S10       30.04S
SOUTH HAVEN    CLEAR     67  52  57 S10       30.05S
$$
MIZ016>042-220500-
NORTHERN LOWER MICHIGAN

CITY           SKY/WX    TMP DP  RH WIND       PRES   REMARKS
ALPENA         CLOUDY    66  52  60 S12       30.07F
BEAVER ISLAND  CLEAR     65  49  55 S9G16     29.97F
BELLAIRE       PTCLDY    67  43  42 S6        30.02S
CADILLAC       CLEAR     64  44  47 S10       30.06S
CHARLEVOIX     CLOUDY    67  46  46 S9        30.02S
FRANKFORT      CLOUDY    69  51  53 S12G20    29.99S
GAYLORD        CLEAR     62  42  47 S12       30.05F
GRAYLING       CLEAR     63  42  46 S5        30.08S
HARBOR SPRINGS CLOUDY    67  43  42 SW3       30.00S
HOUGHTON LAKE  CLEAR     61  45  55 S7        30.09S
MANISTEE       MOCLDY    66  52  60 VRB6      30.00F
OSCODA         CLOUDY    64  53  66 S13       30.10S
PELLSTON       CLOUDY    69  45  41 S9G17     30.01S
ROGERS CITY    PTCLDY    64  46  52 S13G18    30.04F
TRAVERSE CITY  PTCLDY    69  48  47 VRB7      29.99S
$$
MIZ007>008-015-220500-
EASTERN UPPER MICHIGAN

CITY           SKY/WX    TMP DP  RH WIND       PRES   REMARKS
KINROSS        CLEAR     56  45  66 SE8       30.01F
MACKINAC ISLAN PTCLDY    58  44  59 S5        30.01S
NEWBERRY       CLEAR     60  49  68 S10       29.96F
S. S. MARIE    MOCLDY    59  50  72 VRB5      30.01F
MUNISING         N/A     65  57  75 S9G23     29.87F
$$
MIZ004>006-011>014-085-220500-
CENTRAL UPPER MICHIGAN

CITY           SKY/WX    TMP DP  RH WIND       PRES   REMARKS
MANISTIQUE     PTCLDY    59  53  81 S5        29.94S
ESCANABA       PTCLDY    61  57  87 S9        29.92S
MENOMINEE      CLEAR     64  57  78 S10       29.90S
SAWYER-GWINN   CLEAR     61  55  81 S16G24    29.89R
$$
MIZ001>003-009>011-084-220500-
WESTERN UPPER MICHIGAN

CITY           SKY/WX    TMP DP  RH WIND       PRES   REMARKS
IRON MOUNTAIN  CLOUDY    62  53  72 SE8       29.87S
HOUGHTON       CLEAR     64  54  69 S9        29.78S
COPPER HARBOR    N/A     63  53  70 SW10G17   29.76F
IRONWOOD       PTCLDY    67  58  72 S12G18    29.75R
$$

ABBREVIATIONS USED IN REMARKS
   TC - TEMPERATURE IN CELSIUS
  WCI - WIND CHILL INDEX
   HX - HEAT INDEX
  VSB - VISIBILITY





USA.gov is the U.S. government's official web portal to all federal, state and local government web resources and services.